Location: Sternwarte Stuttgart
(48.7670°N, 9.1830°E)
Time: 07:16:25
(UTC+01:00)

Lacrosse 4 Rocket - Pass Details

Date: 24 January 2019
Orbit: 541 x 618 km, 68.0° (Epoch: 17 February)

Event Time Altitude Azimuth Distance (km) Brightness Sun altitude
Exits shadow 05:02:06 19° 146° (SE) 1,422 3.7 -29.6°
Drops below altitude 10° 05:03:22 10° 147° (SSE) 1,918 4.4 -29.4°
Sets 05:05:37 0° 147° (SSE) 2,828 5.3 -29.0°
